Wetbulb
61.39 61.45 61.53 61.61 61.87 59.97 57.90 56.60 55.96 55.99 56.41 56.71 56.51 56.35 56.93 57.03 56.03 52.19 47.95 53.22 54.79 59.72 59.94 52.93 50.73 50.89 46.90 44.09 45.44 44.99 38.77 35.58 39.43 41.65 44.59 49.60 48.95 50.60 52.07 51.50 52.11 52.89 52.63 53.60 56.18
61.47 61.87 61.96 61.81 61.52 59.11 57.00 55.89 55.51 55.73 56.22 56.27 56.07 56.51 56.75 56.27 53.10 49.52 55.94 59.77 59.23 60.02 51.78 50.82 50.63 51.25 44.57 43.23 44.90 41.74 37.23 39.98 44.95 44.54 44.49 46.50 48.87 48.37 48.82 49.96 50.03 50.71 53.64 55.12 55.37
61.53 61.58 61.70 61.76 60.96 58.40 56.33 55.47 55.15 55.69 56.00 55.81 56.04 56.51 56.10 55.10 48.82 49.70 59.56 59.77 59.70 58.67 53.85 53.42 53.09 50.50 45.57 45.22 43.56 40.76 39.71 43.39 46.25 47.33 44.84 44.47 46.34 48.13 46.25 46.39 50.10 49.05 50.82 52.65 52.77
60.95 60.97 61.25 61.42 60.40 57.82 56.04 55.06 55.07 55.52 55.61 55.45 55.59 56.39 55.94 52.31 43.25 51.38 60.14 59.86 60.35 57.18 55.18 53.28 50.48 46.41 44.60 43.49 45.62 42.10 45.86 45.98 46.81 47.20 46.01 44.93 45.21 45.43 45.26 47.34 50.95 51.54 52.30 51.42 50.76
59.90 60.14 60.68 60.91 59.32 57.20 56.01 55.01 54.89 54.89 55.12 54.87 55.08 56.18 51.36 44.17 46.04 54.31 60.98 59.64 56.64 55.01 52.39 51.15 47.72 46.21 43.53 45.64 45.90 44.08 45.58 46.96 46.86 47.58 46.28 47.82 44.78 44.55 43.18 47.43 51.62 52.30 51.47 49.90 49.51
59.14 59.28 59.42 58.79 57.62 56.93 56.35 55.39 54.57 54.43 54.76 54.97 55.04 55.67 48.50 39.99 52.28 55.32 56.42 53.49 54.06 50.99 49.64 49.37 48.52 48.72 46.02 45.57 43.30 45.65 45.51 44.59 45.31 45.19 46.43 45.52 44.10 44.03 45.72 47.20 49.72 49.77 48.54 48.70 48.61
55.38 54.95 54.95 54.53 54.51 55.25 55.53 54.57 54.06 53.94 54.37 54.65 54.97 52.51 47.10 42.58 49.09 49.40 50.72 49.21 50.84 49.96 47.58 49.81 50.02 47.07 47.05 44.69 46.86 47.15 42.32 44.13 43.94 44.44 44.41 45.22 40.04 42.66 45.89 47.49 47.83 47.80 47.60 47.28 47.83
55.48 54.80 54.31 53.78 53.92 54.06 53.97 53.69 53.48 53.96 54.37 54.78 55.09 50.31 41.43 52.06 49.91 49.90 49.05 49.75 52.15 51.56 50.05 51.00 50.04 47.67 45.20 46.78 44.98 42.22 41.99 37.57 43.31 44.46 44.99 43.85 38.06 43.52 45.33 46.85 45.37 45.93 46.64 46.44 46.80
55.30 54.43 53.69 53.44 53.43 53.14 52.88 53.03 53.50 54.33 55.13 55.10 49.32 47.21 42.81 54.66 49.47 51.48 50.11 48.18 49.50 50.74 50.08 52.36 48.55 44.95 44.61 39.21 36.74 38.57 34.60 37.13 39.90 44.02 42.98 41.07 39.33 43.73 44.88 46.60 45.38 45.09 44.64 45.05 44.71
55.10 54.54 53.73 53.08 52.86 52.53 52.23 52.72 53.04 53.09 52.73 53.18 50.88 41.73 45.57 46.84 50.15 50.45 48.99 49.53 47.62 47.59 46.81 45.36 43.19 38.57 37.86 36.45 32.39 35.30 34.86 34.26 35.35 38.88 41.02 38.65 39.18 42.89 44.53 46.13 45.71 43.62 43.78 44.16 44.39
54.74 54.45 53.79 52.99 52.89 52.01 50.47 49.72 45.88 45.16 45.80 44.42 44.98 42.55 46.30 49.31 51.31 48.21 49.35 46.80 45.50 44.22 38.51 41.89 36.61 34.32 39.54 40.64 39.45 38.44 36.72 35.39 36.89 42.12 39.87 39.99 40.72 40.87 44.16 43.15 43.86 43.08 43.11 43.44 43.42
54.70 54.23 53.61 53.04 52.22 51.73 49.70 46.49 46.95 46.20 40.30 47.08 46.61 46.67 48.76 49.78 44.70 47.00 49.79 43.10 41.58 37.37 40.94 38.03 35.00 41.43 43.84 42.07 40.06 39.24 37.26 36.81 39.73 43.43 40.18 37.02 37.82 40.94 42.98 43.75 44.36 43.64 42.75 42.66 43.34
54.46 54.17 53.75 53.04 52.36 49.52 46.30 46.68 50.32 47.98 38.94 41.68 45.33 45.38 46.68 48.03 43.68 44.26 46.59 44.86 40.79 37.92 38.36 36.01 39.01 43.68 42.00 39.96 38.79 38.83 37.24 37.70 37.80 40.93 38.17 36.73 34.55 38.21 42.20 42.98 44.66 45.26 44.17 43.99 43.09
53.85 53.63 52.79 51.88 46.57 46.21 43.25 47.70 47.95 47.50 33.17 36.43 40.90 43.91 46.66 47.58 43.01 49.19 47.88 46.10 42.65 37.72 39.11 37.62 42.31 40.76 39.48 38.84 40.26 35.34 41.91 41.39 40.51 37.37 30.66 37.61 29.50 35.68 39.17 40.33 43.31 44.08 43.02 43.00 43.42
53.64 53.39 51.97 50.59 45.33 42.54 45.82 47.60 47.52 45.56 23.19 41.53 42.78 49.11 47.09 43.59 44.36 43.31 49.39 45.15 40.41 40.05 39.22 36.26 39.15 39.43 37.56 38.76 42.28 38.45 43.08 40.68 40.42 35.73 32.75 34.02 29.78 32.72 38.82 37.80 40.84 42.19 43.07 43.26 42.71
53.52 53.01 51.54 49.58 46.34 46.52 48.44 48.69 46.44 32.80 22.33 38.11 43.69 40.60 40.35 43.14 42.94 43.00 42.47 45.06 45.54 41.24 41.15 39.34 43.46 41.07 40.50 42.57 42.22 44.35 41.20 38.27 35.74 33.64 26.46 32.89 33.07 34.86 33.79 40.32 41.28 42.67 42.36 42.20 41.07
51.36 53.06 51.02 49.71 43.46 48.52 49.12 44.42 31.12 24.43 38.40 36.29 38.64 41.01 39.85 38.51 40.07 40.61 38.02 37.26 35.01 32.87 33.32 38.74 39.55 43.91 44.87 39.10 40.88 41.08 37.05 27.44 24.50 23.32 26.65 36.50 33.34 36.81 38.49 41.93 43.67 42.23 41.89 40.85 40.48
47.97 51.31 51.53 49.75 48.04 49.75 45.41 35.81 23.02 31.49 32.86 40.19 39.43 40.95 36.93 39.03 37.45 39.05 37.55 32.77 38.65 37.72 33.35 30.86 29.21 39.00 43.83 40.29 38.22 38.52 38.24 30.25 23.15 23.20 28.30 35.66 28.31 34.86 42.38 43.97 46.05 45.24 43.65 40.74 39.63
47.98 45.10 48.40 49.68 50.56 49.17 39.95 27.67 25.84 30.91 37.11 35.76 37.01 34.35 35.04 39.18 39.22 37.70 36.49 35.32 36.90 38.54 33.94 31.65 31.61 39.54 42.94 43.62 42.50 37.24 34.32 39.71 32.77 32.77 24.74 28.56 33.51 39.84 42.41 41.96 43.70 42.50 40.85 39.28 39.43
38.17 37.02 38.81 47.75 50.39 45.29 34.88 30.80 31.35 36.22 37.08 36.15 30.14 34.52 31.70 34.44 35.77 36.01 35.90 38.65 38.09 40.41 41.82 37.54 31.55 38.12 40.26 43.16 42.41 39.05 40.95 32.62 31.12 25.20 23.73 28.88 30.20 30.54 36.09 38.05 40.89 40.00 38.92 38.63 39.33
35.05 26.78 35.71 45.68 48.16 39.20 28.56 31.60 33.85 37.82 38.01 34.99 32.94 31.64 32.83 32.50 35.30 34.65 35.08 40.34 42.23 40.84 40.98 38.93 35.85 33.64 38.50 36.78 35.97 37.23 36.80 37.21 36.12 32.67 26.38 24.99 26.57 36.22 38.79 40.54 39.89 40.12 39.63 38.71 38.99
31.23 17.06 38.34 46.25 34.85 32.34 30.58 34.04 37.85 35.38 38.01 36.61 37.30 34.76 33.41 34.98 32.95 33.60 35.01 39.72 43.48 42.56 37.09 39.85 35.14 30.14 33.23 39.39 41.11 38.98 38.27 37.68 30.16 27.64 29.65 28.38 29.62 41.96 41.51 42.63 42.63 41.33 40.11 39.33 39.50
28.74 22.97 36.90 41.78 27.00 29.22 33.94 34.23 35.43 34.33 34.93 35.57 34.62 36.71 36.74 33.23 29.46 34.67 37.29 41.50 42.56 40.03 37.41 38.16 33.38 27.65 29.92 35.02 38.42 35.75 38.11 39.27 38.31 34.30 30.21 26.53 29.10 42.85 43.24 42.43 43.22 41.25 40.32 39.75 39.60
26.21 15.43 30.45 35.58 29.68 26.96 25.86 28.36 30.43 36.70 35.05 36.34 35.30 37.18 34.37 32.25 35.11 32.17 33.86 39.11 41.39 39.53 40.26 40.00 35.82 31.49 26.41 29.51 34.30 32.46 36.72 38.55 37.17 31.00 30.93 30.51 32.23 37.74 40.81 41.12 41.35 41.11 40.27 39.85 39.86
28.74 21.95 25.61 25.53 25.61 29.31 29.71 29.37 27.78 28.34 35.44 36.54 33.94 34.18 32.98 29.79 31.10 32.12 34.69 36.13 38.50 39.49 38.06 35.34 31.02 32.42 33.06 33.58 34.03 34.02 35.16 36.60 35.75 35.96 31.07 33.84 33.96 38.79 40.94 41.34 41.95 41.77 41.11 40.31 40.04
28.24 24.72 26.47 25.21 29.52 27.57 28.41 25.52 28.20 28.91 30.54 30.90 32.19 33.85 34.53 31.55 32.33 31.22 34.72 34.19 33.47 37.27 35.44 36.46 30.01 31.68 29.44 32.66 32.44 30.51 31.99 33.67 35.15 35.79 35.07 35.59 33.67 40.55 42.71 44.07 44.10 43.21 42.87 42.10 41.19
31.78 31.65 29.99 25.15 25.93 26.40 26.39 27.10 28.02 30.55 32.45 34.33 34.42 34.12 33.46 35.20 38.15 38.87 39.58 39.43 37.44 34.80 33.83 33.52 30.98 29.04 24.40 31.66 30.27 26.05 30.77 31.89 32.81 34.42 34.41 30.07 35.34 39.90 40.36 40.64 41.01 43.92 44.36 44.09 44.36
MSLP
1019.42 1019.56 1019.66 1019.73 1019.80 1019.84 1020.11 1019.93 1019.79 1019.63 1019.44 1019.21 1018.75 1018.25 1017.80 1017.41 1016.24 1015.27 1014.85 1013.83 1013.71 1013.36 1013.21 1012.82 1012.33 1012.18 1012.06 1012.12 1011.78 1011.94 1013.23 1013.48 1012.39 1011.30 1010.00 1008.95 1008.78 1008.86 1009.10 1009.68 1010.42 1011.20 1012.01 1013.39 1014.04
1019.14 1019.31 1019.33 1019.40 1019.45 1019.72 1019.91 1019.95 1019.81 1019.59 1019.39 1019.10 1018.74 1018.30 1017.65 1017.35 1016.61 1014.99 1013.42 1013.38 1013.52 1013.35 1013.10 1013.09 1012.65 1012.45 1012.32 1012.15 1011.91 1012.19 1012.83 1012.51 1011.40 1010.56 1010.43 1009.69 1009.16 1009.27 1009.96 1010.34 1011.28 1012.07 1013.40 1014.16 1014.06
1018.69 1018.87 1018.93 1019.02 1019.18 1019.35 1019.64 1019.84 1019.65 1019.58 1019.32 1019.11 1018.62 1018.29 1017.67 1017.32 1016.37 1013.96 1013.16 1013.12 1013.43 1013.42 1013.15 1013.17 1012.99 1012.81 1012.44 1012.14 1011.95 1011.87 1011.84 1011.34 1010.74 1010.32 1010.26 1010.31 1009.93 1009.86 1010.66 1011.43 1011.16 1012.17 1013.44 1014.34 1014.81
1018.20 1018.36 1018.53 1018.58 1018.85 1019.04 1019.20 1019.56 1019.59 1019.48 1019.25 1019.07 1018.73 1018.26 1017.61 1017.23 1015.93 1013.27 1013.28 1013.13 1013.23 1013.33 1013.20 1012.98 1012.91 1012.80 1012.61 1012.41 1011.74 1011.80 1011.13 1010.81 1010.53 1009.98 1010.07 1010.57 1010.70 1010.77 1010.95 1011.27 1011.64 1012.80 1013.69 1014.54 1015.36
1017.59 1017.85 1018.10 1018.21 1018.43 1018.76 1019.01 1019.28 1019.45 1019.32 1019.29 1019.06 1018.85 1018.45 1017.70 1017.10 1015.16 1013.09 1013.27 1013.12 1013.17 1013.15 1013.22 1013.18 1012.99 1012.71 1012.65 1012.21 1011.82 1011.48 1010.82 1010.45 1010.09 1010.08 1010.13 1010.36 1010.97 1011.49 1011.82 1012.07 1012.75 1013.51 1014.35 1015.29 1016.26
1017.21 1017.48 1017.83 1018.11 1018.46 1018.85 1019.05 1019.15 1019.21 1019.18 1019.22 1019.14 1018.93 1018.69 1018.32 1016.76 1013.43 1013.14 1013.23 1013.31 1013.17 1013.13 1013.03 1013.10 1012.91 1012.81 1012.45 1012.00 1011.94 1011.42 1011.06 1010.59 1010.51 1010.61 1010.44 1010.60 1011.08 1011.54 1012.23 1012.97 1013.66 1014.16 1015.17 1015.89 1016.55
1017.33 1017.73 1018.04 1018.36 1018.78 1019.06 1019.08 1019.11 1019.13 1019.05 1019.06 1019.10 1018.92 1018.78 1018.41 1015.24 1013.17 1013.15 1013.38 1013.35 1013.12 1012.92 1012.99 1012.76 1012.73 1012.93 1012.54 1012.09 1011.86 1011.41 1011.40 1010.99 1010.59 1010.65 1010.80 1011.01 1011.57 1011.63 1011.98 1013.27 1014.36 1015.08 1015.84 1016.38 1016.93
1017.46 1017.58 1018.12 1018.56 1018.81 1018.82 1019.18 1018.99 1019.03 1018.79 1018.95 1018.97 1018.94 1018.81 1017.21 1013.96 1013.41 1013.28 1013.07 1012.97 1012.72 1012.72 1012.59 1012.51 1012.47 1012.79 1012.73 1012.42 1012.19 1011.97 1011.77 1011.36 1010.66 1010.52 1010.78 1011.08 1011.17 1011.34 1011.72 1013.11 1014.53 1015.34 1016.12 1016.71 1017.29
1017.39 1017.67 1018.34 1018.70 1018.65 1018.76 1019.00 1018.89 1018.97 1018.69 1018.81 1018.64 1018.82 1018.64 1016.07 1013.54 1013.05 1011.91 1012.32 1012.48 1012.44 1012.70 1012.45 1012.15 1012.48 1012.82 1013.14 1013.24 1013.42 1012.65 1012.29 1011.67 1010.98 1010.31 1010.89 1011.29 1010.99 1010.80 1011.14 1012.44 1014.15 1015.14 1015.94 1016.74 1017.59
1017.55 1017.67 1018.05 1018.26 1018.75 1018.64 1018.68 1018.72 1018.94 1018.52 1018.10 1018.34 1018.25 1018.43 1015.15 1013.11 1012.07 1011.70 1011.76 1012.05 1012.54 1012.64 1012.85 1012.59 1013.09 1013.40 1013.94 1013.81 1012.84 1012.61 1012.66 1012.02 1011.41 1010.73 1010.83 1010.92 1010.80 1010.74 1010.75 1011.70 1013.33 1014.93 1016.10 1016.88 1017.56
1017.53 1017.72 1017.99 1018.25 1018.56 1018.63 1018.56 1018.52 1019.40 1018.53 1017.97 1017.06 1016.53 1015.85 1014.11 1012.99 1011.85 1011.56 1011.81 1012.26 1012.55 1013.04 1013.19 1012.98 1013.77 1013.41 1012.71 1012.91 1012.62 1012.60 1012.37 1011.94 1011.05 1010.46 1010.83 1010.57 1010.48 1010.80 1010.83 1011.96 1013.65 1015.01 1015.81 1016.75 1017.65
1016.92 1017.75 1018.13 1018.28 1018.66 1018.74 1018.80 1018.71 1018.74 1018.84 1017.21 1015.77 1015.38 1014.53 1013.37 1013.33 1013.35 1012.01 1012.02 1012.66 1012.89 1012.89 1013.18 1013.56 1012.89 1011.92 1012.70 1012.82 1012.74 1012.74 1012.36 1011.70 1010.73 1010.23 1010.55 1010.63 1010.72 1010.55 1010.85 1011.25 1012.28 1013.74 1015.40 1016.42 1017.45
1017.08 1017.47 1018.06 1018.41 1018.61 1018.69 1018.24 1018.57 1018.73 1018.56 1017.42 1015.10 1013.71 1012.79 1012.39 1012.53 1011.98 1011.83 1012.00 1012.13 1012.41 1012.67 1012.78 1012.48 1011.97 1011.35 1012.14 1012.19 1012.36 1011.89 1011.71 1011.37 1011.06 1010.39 1010.27 1010.70 1010.94 1010.50 1010.40 1010.95 1011.98 1013.41 1014.26 1015.74 1016.50
1016.85 1017.42 1017.84 1018.21 1018.68 1018.59 1018.25 1017.74 1018.47 1018.94 1017.88 1013.86 1012.62 1010.65 1010.50 1011.18 1010.88 1010.56 1010.53 1011.27 1011.77 1012.12 1012.57 1011.86 1011.56 1011.40 1011.53 1011.52 1011.68 1010.97 1010.60 1010.70 1010.76 1011.03 1010.91 1010.62 1010.91 1010.49 1010.36 1010.74 1011.74 1012.99 1014.24 1015.14 1016.30
1016.69 1016.96 1017.42 1017.36 1017.85 1018.35 1017.74 1017.74 1018.46 1018.86 1016.64 1011.30 1010.31 1008.65 1009.39 1010.25 1009.60 1009.37 1008.95 1010.20 1010.77 1011.24 1011.85 1010.65 1010.26 1010.44 1010.21 1009.89 1010.57 1010.08 1010.05 1010.11 1010.39 1010.81 1011.09 1011.00 1011.19 1009.65 1009.71 1010.58 1011.51 1012.64 1013.81 1014.89 1015.87
1016.02 1016.44 1017.20 1017.89 1017.99 1017.48 1017.67 1018.09 1018.88 1019.11 1014.76 1010.40 1009.14 1008.73 1009.08 1009.77 1009.14 1008.71 1009.54 1010.11 1010.50 1011.18 1010.87 1010.28 1009.82 1009.72 1009.42 1009.12 1009.46 1009.41 1010.10 1010.28 1010.88 1011.29 1011.10 1010.88 1010.97 1007.98 1008.92 1009.02 1010.63 1012.30 1013.48 1014.53 1015.73
1015.97 1016.11 1016.93 1017.47 1017.61 1017.47 1017.76 1018.73 1019.38 1017.43 1012.88 1010.34 1009.04 1008.82 1008.35 1008.84 1009.31 1008.61 1009.29 1010.28 1010.42 1011.31 1010.48 1010.62 1009.00 1008.95 1009.13 1008.93 1008.87 1009.18 1009.57 1010.82 1011.68 1012.00 1010.56 1010.57 1010.76 1006.57 1007.89 1007.98 1008.78 1010.79 1012.82 1014.14 1015.39
1016.40 1016.26 1016.49 1016.87 1017.25 1017.34 1018.46 1019.35 1018.08 1014.74 1012.86 1010.08 1009.58 1009.04 1009.01 1009.00 1008.89 1008.64 1008.92 1009.32 1009.86 1009.91 1010.28 1009.79 1008.68 1008.04 1007.50 1007.68 1007.79 1007.96 1008.52 1009.28 1010.30 1011.19 1010.64 1010.54 1008.87 1007.08 1007.24 1007.21 1008.08 1009.72 1011.63 1014.08 1015.60
1016.53 1017.09 1016.93 1017.16 1017.41 1017.88 1018.40 1018.13 1016.18 1014.62 1012.59 1011.50 1010.39 1009.65 1009.73 1009.35 1009.41 1008.68 1008.99 1008.65 1008.41 1009.01 1009.30 1009.35 1007.78 1006.47 1006.06 1006.03 1006.96 1007.10 1007.33 1007.73 1009.31 1010.28 1010.62 1009.61 1008.46 1007.67 1007.58 1007.52 1008.35 1010.47 1012.53 1014.05 1015.27
1017.21 1017.80 1017.43 1017.01 1017.44 1018.19 1017.99 1016.88 1015.87 1013.81 1012.76 1012.22 1011.66 1010.88 1010.29 1009.99 1009.55 1009.20 1009.08 1008.31 1008.37 1008.20 1008.29 1008.22 1007.89 1006.38 1005.55 1005.73 1005.65 1006.09 1006.89 1007.86 1008.81 1009.76 1009.96 1008.92 1008.89 1008.19 1008.56 1008.82 1009.73 1011.10 1012.50 1014.01 1015.38
1017.88 1018.59 1017.75 1017.42 1017.58 1017.88 1017.35 1016.51 1015.18 1013.91 1013.87 1013.17 1012.78 1012.43 1011.84 1011.26 1010.48 1010.05 1010.04 1009.07 1009.20 1008.40 1008.32 1008.43 1008.68 1007.17 1006.37 1004.79 1004.58 1005.93 1006.22 1006.86 1007.48 1008.35 1008.67 1009.06 1008.27 1007.10 1007.49 1008.49 1009.44 1010.77 1012.18 1013.40 1014.86
1018.29 1018.75 1017.74 1017.55 1018.00 1017.67 1017.13 1016.52 1015.29 1014.07 1014.19 1013.79 1013.36 1013.47 1013.01 1012.54 1011.75 1011.32 1010.44 1010.18 1009.99 1010.61 1009.73 1007.99 1008.27 1007.80 1006.45 1005.61 1005.36 1005.35 1005.74 1006.34 1006.80 1007.87 1008.12 1008.51 1007.28 1006.77 1007.00 1007.84 1008.83 1010.28 1011.99 1013.47 1014.67
1018.55 1018.76 1018.13 1017.69 1017.98 1017.84 1017.38 1016.66 1015.87 1014.55 1014.29 1013.73 1013.40 1013.56 1013.31 1013.31 1012.85 1011.54 1011.54 1012.29 1011.51 1011.93 1011.91 1011.33 1009.16 1008.96 1007.42 1006.86 1005.49 1005.49 1005.15 1005.55 1006.24 1007.10 1007.67 1008.16 1007.09 1007.26 1007.37 1008.16 1009.33 1010.72 1012.23 1013.61 1014.61
1018.99 1019.48 1018.99 1018.70 1018.52 1018.21 1017.68 1016.73 1016.09 1014.60 1014.53 1014.41 1014.23 1013.84 1013.91 1013.42 1013.27 1012.52 1012.68 1013.08 1013.03 1012.89 1012.51 1012.33 1011.29 1010.05 1008.77 1008.30 1007.51 1005.95 1005.18 1005.27 1005.91 1006.80 1007.13 1007.40 1007.58 1007.94 1008.13 1008.66 1009.64 1010.60 1012.01 1013.15 1014.13
1018.84 1019.26 1018.78 1018.94 1018.52 1018.30 1018.06 1016.76 1015.79 1014.81 1013.95 1013.90 1014.19 1014.40 1013.98 1013.58 1013.06 1012.75 1013.26 1013.57 1013.69 1013.59 1013.23 1013.25 1012.46 1011.46 1010.90 1010.40 1009.35 1007.93 1006.95 1006.51 1006.59 1007.09 1007.40 1007.23 1007.89 1008.24 1008.72 1009.08 1009.71 1010.45 1011.63 1012.71 1013.78
1018.66 1019.09 1018.70 1018.45 1018.17 1018.19 1017.84 1016.45 1015.77 1014.36 1014.83 1013.35 1013.47 1013.35 1013.35 1013.43 1012.79 1012.48 1012.79 1013.07 1013.43 1013.51 1013.26 1013.22 1012.78 1012.74 1012.08 1011.32 1011.13 1010.06 1009.22 1008.89 1008.67 1008.57 1008.30 1008.26 1008.30 1007.84 1007.83 1008.73 1009.23 1010.35 1011.56 1012.33 1013.00
1018.12 1018.07 1018.20 1018.15 1018.01 1017.90 1017.12 1016.06 1014.90 1014.78 1013.93 1013.02 1012.94 1012.76 1012.73 1011.66 1011.99 1011.94 1012.23 1012.67 1012.52 1012.71 1012.76 1012.75 1012.98 1013.55 1011.95 1011.96 1011.62 1010.71 1009.31 1008.92 1008.53 1008.60 1008.34 1008.06 1007.52 1007.27 1007.30 1007.63 1008.12 1008.92 1009.37 1010.14 1010.38
Wind_Speed
10 9 8 7 7 4 5 5 7 8 9 11 13 14 17 18 20 3 4 4 4 7 7 7 5 5 0 3 3 3 5 2 3 3 3 3 6 3 3 10 4 4 8 11 10
10 10 9 8 7 4 4 5 6 7 8 10 14 16 17 17 4 6 7 4 6 5 3 4 5 8 3 2 1 5 5 7 4 1 3 4 6 3 6 7 8 13 12 12 14
12 12 11 9 8 7 4 4 6 8 8 10 13 15 17 12 5 4 4 3 5 5 1 2 4 2 2 0 2 2 7 6 3 3 2 4 4 5 10 3 14 19 11 11 17
13 12 12 11 9 7 6 3 5 7 8 10 13 15 20 3 6 2 5 5 6 4 5 4 4 5 2 3 2 3 7 5 5 4 4 4 3 4 3 6 10 14 14 14 15
13 12 12 11 10 8 6 3 4 6 7 9 12 14 7 4 10 5 6 6 4 2 4 3 4 1 2 5 6 5 5 5 5 7 6 6 5 2 2 6 15 17 16 16 14
8 8 4 5 6 3 2 2 3 6 7 7 10 12 2 5 3 3 4 4 5 2 5 1 4 6 7 3 1 4 4 2 4 4 4 6 3 4 7 9 13 17 14 13 13
14 14 12 10 6 3 1 4 5 6 6 7 7 3 2 18 3 2 6 5 4 3 3 4 2 4 4 6 3 4 4 4 3 2 4 6 2 9 6 11 14 15 14 13 13
10 11 9 6 5 2 4 6 8 6 6 6 4 1 9 7 6 8 4 5 7 8 3 6 4 3 3 3 8 4 1 3 4 7 6 9 9 10 9 17 14 14 13 13 11
12 13 9 6 3 3 6 8 10 7 7 6 1 2 11 9 4 10 9 5 5 6 5 3 2 3 4 3 5 3 5 5 5 7 6 7 7 11 13 18 17 15 13 13 12
12 13 12 10 5 2 7 9 9 4 4 4 3 4 6 5 4 3 5 6 4 2 3 2 2 2 2 4 13 6 5 4 6 4 8 8 8 5 11 19 20 15 12 12 12
13 12 11 9 6 3 4 3 3 1 2 8 6 6 7 4 6 0 3 4 2 2 7 3 4 9 19 11 2 4 4 5 5 5 6 16 13 8 10 7 16 13 14 12 11
13 12 11 9 8 6 3 3 2 4 9 13 20 21 20 8 7 7 2 5 6 10 6 3 13 18 9 8 8 11 11 13 10 9 7 6 10 12 10 9 21 20 15 15 13
13 13 11 11 9 2 4 3 8 10 4 7 10 9 12 14 15 16 7 7 7 9 9 12 7 13 13 13 12 14 14 13 10 3 3 6 7 7 6 5 12 15 16 15 19
15 14 14 12 5 4 2 5 7 1 3 8 7 9 8 5 8 21 11 9 7 12 10 12 15 16 10 15 14 17 13 13 15 8 6 7 8 7 9 6 12 18 19 19 18
16 15 16 11 8 3 2 3 4 2 2 7 8 6 9 12 4 7 22 9 14 9 8 9 6 13 21 24 16 14 9 9 7 5 0 5 3 8 8 7 10 16 18 17 16
19 19 17 3 1 3 3 5 5 1 11 4 4 10 10 10 5 3 4 2 7 8 12 10 6 5 8 12 18 8 4 5 4 3 7 7 6 13 9 15 10 13 15 18 16
8 18 16 6 4 4 3 5 2 6 5 5 6 7 9 9 9 6 8 14 11 7 16 12 22 20 11 9 6 10 6 1 3 1 11 11 8 22 5 10 17 23 20 18 17
5 4 6 5 3 7 4 3 6 7 10 10 6 3 8 4 7 12 8 10 19 11 2 9 10 16 15 22 10 14 15 8 9 7 9 10 11 11 5 13 16 23 20 17 16
4 2 1 5 6 2 6 6 10 6 4 4 6 8 12 13 7 8 19 10 12 25 14 7 12 4 13 16 20 11 16 11 3 4 2 6 7 6 6 3 17 19 18 17 15
3 2 2 4 8 5 4 10 7 5 5 7 2 4 2 10 14 8 9 12 18 14 20 5 10 6 5 12 13 11 6 4 1 14 17 8 6 7 2 8 12 17 17 15 13
5 4 4 2 5 2 4 6 8 11 7 3 5 6 4 4 6 4 7 8 5 7 17 23 15 9 3 13 20 9 14 6 6 9 16 15 11 9 14 14 18 15 13 16 15
3 4 3 4 5 2 4 6 4 4 2 7 2 5 5 3 3 5 7 12 8 10 7 18 8 20 30 9 8 5 19 12 8 12 7 6 14 6 9 15 16 16 15 13 13
3 2 3 0 4 7 3 5 8 16 3 8 10 8 1 1 6 4 8 10 9 5 8 10 5 16 16 12 20 16 17 22 14 4 13 10 11 4 7 8 6 10 12 11 13
4 3 2 1 1 3 2 8 9 7 15 13 6 5 5 11 6 4 8 3 5 3 7 8 5 5 17 2 5 7 21 23 20 12 14 10 4 5 6 9 6 11 13 14 15
2 4 5 4 4 8 4 5 10 11 12 8 9 10 7 6 6 8 8 4 4 5 3 3 2 5 8 15 13 11 12 5 4 2 8 16 6 4 6 7 8 12 14 16 15
5 4 3 2 3 7 8 5 14 20 13 12 15 14 16 17 16 5 5 5 6 7 3 4 2 4 3 4 8 8 12 14 7 4 5 2 8 4 9 10 12 12 12 11 12
1 1 4 4 2 4 8 9 12 9 12 23 18 15 19 20 15 5 8 5 7 7 2 2 3 4 3 4 4 5 12 12 12 12 8 6 12 15 7 10 12 18 19 20 20
Wind_Direction
240 247 249 250 251 246 293 319 335 338 341 339 335 333 329 330 316 320 274 225 256 333 329 300 329 322 305 266 204 106 70 290 262 310 247 5 117 309 56 93 75 59 99 109 114
240 243 243 240 247 224 272 307 322 332 338 339 335 333 328 333 311 283 246 247 273 302 324 336 323 355 337 269 291 105 119 220 228 269 0 11 101 121 92 99 102 93 81 98 76
230 236 239 237 231 206 219 290 318 327 338 340 338 333 323 325 323 256 174 225 272 303 260 299 296 247 271 50 245 207 194 199 245 179 88 355 22 10 123 128 156 141 124 98 92
226 229 232 227 214 207 195 233 304 322 337 342 340 333 322 319 310 282 200 226 271 285 313 344 359 321 291 294 271 246 246 197 211 192 118 118 322 27 15 168 136 121 113 97 85
222 224 225 216 192 189 190 215 293 316 328 338 341 335 353 352 252 265 220 250 291 297 288 333 313 243 262 292 317 209 266 210 186 170 154 138 131 157 89 104 111 109 100 97 95
240 246 234 148 124 152 221 248 291 310 318 332 341 330 352 281 253 264 209 293 258 298 285 322 293 294 256 252 192 305 264 290 114 181 191 150 202 134 188 124 111 109 105 104 103
95 95 94 94 64 25 339 299 292 301 306 319 333 329 271 244 248 283 316 285 266 211 279 292 299 10 339 316 350 303 281 319 209 197 218 129 203 211 177 128 123 116 115 111 108
110 112 112 121 151 174 268 276 282 284 297 296 315 332 246 265 266 271 188 258 247 268 204 279 325 266 224 309 350 323 117 246 257 177 237 136 249 231 195 140 138 132 126 122 115
146 142 144 165 171 220 276 289 287 296 278 267 316 197 264 295 240 248 197 226 225 258 264 295 346 214 4 95 343 286 238 224 303 204 161 182 244 237 199 148 150 148 141 132 121
170 163 164 162 194 246 322 300 277 315 244 216 263 315 259 262 243 243 169 161 225 309 289 210 66 96 358 149 221 206 232 250 225 268 184 195 224 248 186 151 161 151 150 142 137
176 170 169 168 163 77 28 4 270 154 248 217 189 247 293 277 334 174 181 137 129 161 196 193 139 207 214 222 250 219 240 236 241 233 169 209 210 212 204 127 156 159 156 152 143
168 172 174 163 151 137 104 98 85 329 293 237 252 243 244 261 292 308 143 167 172 209 157 254 226 228 229 235 229 248 255 259 283 266 170 198 226 207 206 200 171 164 164 158 149
177 175 172 159 146 107 128 210 310 341 256 263 232 234 224 208 224 230 182 197 207 209 195 209 227 206 214 234 240 236 232 248 238 272 269 121 285 268 213 189 159 174 163 160 161
181 175 161 144 107 167 200 207 253 324 315 271 232 244 179 187 263 205 199 172 214 207 217 244 236 250 235 236 224 242 230 244 251 227 212 174 250 243 219 212 161 171 169 168 165
183 168 156 151 141 154 199 192 272 49 297 188 192 177 161 170 172 218 210 194 202 188 170 229 206 214 226 231 225 247 221 228 207 189 225 192 225 241 196 213 195 177 176 172 162
178 161 164 188 37 183 333 103 68 131 247 258 185 181 142 215 222 88 137 189 200 244 260 243 268 211 221 234 223 255 192 46 45 110 248 165 187 233 201 204 179 177 166 160 155
55 170 164 154 198 149 86 74 146 204 270 224 207 186 182 175 222 166 161 182 193 186 237 257 252 255 260 289 251 203 137 249 284 249 240 170 210 242 238 223 179 173 172 167 157
38 73 173 178 156 118 81 109 191 226 248 319 339 105 203 161 240 204 183 174 213 208 232 203 271 209 218 217 221 220 201 200 200 198 239 179 239 246 262 235 179 177 165 151 159
98 25 189 177 120 81 150 196 200 214 241 330 329 280 238 262 283 190 215 220 204 205 199 201 248 212 231 204 194 214 210 193 147 17 70 208 270 302 20 41 149 155 158 164 162
90 71 262 189 150 152 236 197 254 235 2 7 334 353 345 246 237 206 202 234 239 222 221 215 278 213 222 202 231 203 170 144 288 222 240 224 229 229 183 146 144 156 169 163 154
61 69 266 171 143 153 225 229 244 256 351 343 11 327 303 326 342 305 315 282 346 291 209 228 245 259 17 201 212 208 212 225 183 197 227 251 252 209 190 177 175 181 166 157 155
113 68 289 183 183 201 214 205 280 302 211 244 11 236 260 346 263 248 229 218 49 354 318 229 216 248 240 265 287 265 236 202 192 224 221 209 246 308 168 176 178 172 161 161 157
102 175 332 119 204 224 253 247 250 270 244 211 208 222 32 280 320 0 36 16 23 75 4 342 252 240 263 266 253 241 243 225 217 98 206 201 238 199 184 157 165 151 152 154 150
96 75 313 209 209 165 55 267 257 243 246 258 305 278 254 268 205 279 327 38 359 49 40 350 283 251 242 251 289 224 239 222 211 213 220 224 158 68 121 128 101 143 155 161 169
95 218 193 177 239 214 209 266 254 263 213 215 232 234 252 262 259 243 245 293 235 214 108 108 341 355 10 8 357 345 337 17 223 47 217 235 194 92 132 155 156 148 151 161 172
153 159 314 202 183 192 210 234 248 256 264 259 226 234 219 235 232 247 181 190 203 210 166 200 59 357 318 90 348 324 326 331 285 262 245 255 289 198 241 181 190 161 168 184 222
252 271 100 229 189 211 219 232 256 274 256 246 247 229 230 227 231 216 190 223 197 182 220 148 139 207 272 144 92 277 235 248 228 225 220 256 251 260 239 231 190 182 188 210 201